Simultaneous Nadir Overpasses (SNOs) Predictions

Prediction of SNOs between AURA and LANDSAT-8 Satellite Orbit:

Table of predicted SNOs for the next 14.0 days since TLE Epoch: 3/15/2025
Index Date (AURA) Time (AURA) Lat,Lon (AURA) SZA (AURA ) Date (LANDSAT-8) Time (LANDSAT-8) Lat,Lon (LANDSAT-8) SZA (LANDSAT-8 ) Distance(km) Time Diff (sec)
1 03/21/2025 06:33:37 -72.69, -95.15 107.76 03/21/2025 06:32:31 -72.69, -97.77 107.76 86.73 66
2 03/21/2025 07:23:01 72.84, 72.23 72.38 03/21/2025 07:21:54 72.80, 70.10 72.34 70.25 67
3 03/21/2025 08:12:26 -73.12,-120.67 107.36 03/21/2025 08:11:16 -73.11,-121.67 107.38 32.45 70
4 03/21/2025 09:01:50 73.27, 46.69 72.78 03/21/2025 09:00:38 73.27, 46.32 72.78 12.08 72
5 03/21/2025 09:51:12 -73.39,-145.90 107.11 03/21/2025 09:50:04 -73.37,-145.86 107.14 3.32 68
6 03/21/2025 10:40:33 73.39, 21.79 72.87 03/21/2025 10:39:29 73.38, 21.81 72.86 1.16 64
7 03/21/2025 11:29:53 -73.40,-170.58 107.13 03/21/2025 11:28:56 -73.42,-170.48 107.12 3.58 57
8 03/21/2025 12:19:14 73.39, -2.90 72.85 03/21/2025 12:18:22 73.37, -2.92 72.83 2.39 52
9 03/21/2025 13:08:34 -73.41, 164.73 107.15 03/21/2025 13:07:49 -73.41, 164.79 107.15 2.08 45
10 03/21/2025 13:57:55 73.40, -27.59 72.83 03/21/2025 13:57:14 73.42, -27.54 72.85 2.72 41
11 03/21/2025 14:47:15 -73.42, 140.04 107.17 03/21/2025 14:46:42 -73.41, 140.07 107.18 1.56 33
12 03/21/2025 15:36:36 73.41, -52.28 72.81 03/21/2025 15:36:07 73.42, -52.27 72.82 0.90 29
13 03/21/2025 16:25:56 -73.43, 115.35 107.19 03/21/2025 16:25:35 -73.41, 115.34 107.21 2.69 21
14 03/21/2025 17:15:17 73.42, -76.97 72.80 03/21/2025 17:15:00 73.42, -76.99 72.79 0.99 17
15 03/21/2025 18:04:37 -73.44, 90.66 107.20 03/21/2025 18:04:27 -73.46, 90.72 107.19 2.58 10
16 03/21/2025 18:53:58 73.43,-101.66 72.78 03/21/2025 18:53:53 73.41,-101.72 72.76 2.83 5
17 03/21/2025 19:43:18 -73.45, 65.97 107.22 03/21/2025 19:43:20 -73.45, 65.99 107.22 0.77 2
18 03/21/2025 20:32:39 73.44,-126.35 72.76 03/21/2025 20:32:45 73.46,-126.34 72.78 2.45 6
19 03/21/2025 21:21:59 -73.46, 41.28 107.24 03/21/2025 21:22:13 -73.45, 41.27 107.25 1.14 14
20 03/21/2025 22:11:20 73.45,-151.04 72.74 03/21/2025 22:11:38 73.46,-151.07 72.75 1.37 18
21 03/21/2025 23:00:40 -73.47, 16.60 107.26 03/21/2025 23:01:06 -73.45, 16.54 107.28 2.98 26
22 03/21/2025 23:50:01 73.46,-175.73 72.73 03/21/2025 23:50:31 73.46,-175.79 72.72 2.18 30
23 03/22/2025 00:39:21 -73.48, -8.09 107.27 03/22/2025 00:39:58 -73.50, -8.08 107.26 2.04 37
24 03/22/2025 01:28:42 73.47, 159.58 72.71 03/22/2025 01:29:24 73.45, 159.48 72.69 3.82 42
25 03/22/2025 02:18:02 -73.49, -32.78 107.29 03/22/2025 02:18:51 -73.49, -32.80 107.29 0.86 49
26 03/22/2025 03:07:23 73.48, 134.89 72.69 03/22/2025 03:08:16 73.50, 134.86 72.71 2.68 53
27 03/22/2025 03:56:43 -73.50, -57.47 107.31 03/22/2025 03:57:44 -73.49, -57.53 107.32 2.07 61
28 03/22/2025 04:46:04 73.49, 110.20 72.68 03/22/2025 04:47:09 73.50, 110.13 72.68 2.42 65
29 03/22/2025 05:35:25 -73.56, -82.28 107.27 03/22/2025 05:36:36 -73.54, -82.15 107.30 4.61 71
30 03/22/2025 06:24:49 73.71, 85.06 72.87 03/22/2025 06:25:59 73.65, 85.74 72.81 22.16 70
31 03/22/2025 07:14:14 -73.98,-107.89 106.87 03/22/2025 07:15:22 -73.90,-106.09 106.96 56.12 68
32 03/22/2025 08:03:38 74.13, 59.43 73.27 03/22/2025 08:04:44 74.07, 61.93 73.20 76.69 66



Historial Predications of SNOs between AURA and LANDSAT-8
